N8DH Weather Reports


Display with metric or nautical units.
time (UTC)temp
F
wind
direction
speed
MPH
gust
MPH
rain 1hr
in
rain 24hr
in
rain mn
in
humidity
%
barometer
mb
20260903170010 88 220 2.0 6.0 0.00 0.24 0.24 70 1007.4
20260903164603 87 191 3.0 7.0 0.00 0.24 0.24 72 1007.6
20260903163138 87 210 3.0 8.0 0.00 0.24 0.24 75 1007.7
20260903161528 87 213 1.0 6.0 0.00 0.24 0.24 75 1007.9
20260903160104 86 219 1.0 4.0 0.00 0.24 0.24 76 1007.6
20260903154536 84 263 1.0 5.0 0.00 0.24 0.24 74 1007.7
20260903153110 84 229 2.0 6.0 0.00 0.24 0.24 78 1007.8
20260903151638 85 194 3.0 7.0 0.00 0.24 0.24 77 1007.8
20260903150029 83 233 2.0 5.0 0.00 0.24 0.24 80 1007.7
20260903144522 82 208 3.0 5.0 0.00 0.24 0.24 80 1007.8
20260903143100 82 162 2.0 5.0 0.00 0.24 0.24 82 1007.8
20260903141607 81 221 2.0 6.0 0.00 0.24 0.24 82 1007.9
20260903140038 79 227 1.0 3.0 0.00 0.24 0.24 85 1007.9
20260903134607 79 210 0.0 4.0 0.00 0.24 0.24 86 1007.9
20260903133141 78 213 1.0 3.0 0.00 0.24 0.24 86 1007.8
20260903131654 78 250 0.0 4.0 0.00 0.24 0.24 87 1007.9
20260903130058 77 157 1.0 4.0 0.00 0.24 0.24 90 1008.1
20260903124506 75 141 2.0 4.0 0.00 0.24 0.24 92 1008.2
20260903123058 74 175 0.0 2.0 0.00 0.24 0.24 94 1008.3
20260903121644 73 208 0.0 0.0 0.00 0.24 0.24 94 1008.2
20260903120150 72 208 0.0 0.0 0.01 0.24 0.24 94 1008.3
20260903114551 71 208 0.0 0.0 0.01 0.24 0.24 93 1008.2
20260903113145 71 208 0.0 2.0 0.24 0.24 0.24 92 1008.0
20260903111652 72 232 0.0 3.0 0.24 0.24 0.24 92 1008.1
20260903110155 74 45 0.0 4.0 0.23 0.23 0.23 90 1007.8
20260903104531 75 302 2.0 39.0 0.23 0.23 0.23 80 1007.4
20260903103111 73 42 3.0 7.0 0.00 0.00 0.00 92 1007.6
20260903101638 72 141 0.0 0.0 0.00 0.00 0.00 92 1007.3
20260903100025 72 141 0.0 0.0 0.00 0.00 0.00 91 1007.3
20260903094610 72 141 0.0 0.0 0.00 0.00 0.00 90 1007.3
20260903093135 71 141 0.0 2.0 0.00 0.00 0.00 91 1007.2
20260903091647 71 141 0.0 2.0 0.00 0.00 0.00 90 1007.1
20260903084639 72 141 0.0 2.0 0.00 0.00 0.00 87 1007.0
20260903083140 71 141 0.0 2.0 0.00 0.00 0.00 88 1006.9
20260903081635 72 195 0.0 2.0 0.00 0.00 0.00 87 1007.0
20260903080145 72 195 0.0 2.0 0.00 0.00 0.00 88 1007.2
20260903074656 72 195 0.0 2.0 0.00 0.00 0.00 88 1007.5
20260903073032 72 195 0.0 2.0 0.00 0.00 0.00 88 1007.6
20260903071558 72 195 0.0 2.0 0.00 0.00 0.00 88 1007.3
20260903070013 73 195 0.0 1.0 0.00 0.00 0.00 85 1007.1
20260903064553 73 195 0.0 2.0 0.00 0.00 0.00 84 1007.3
20260903063005 75 313 0.0 2.0 0.00 0.00 0.00 79 1007.9
20260903061559 77 243 0.0 3.0 0.00 0.00 0.00 77 1008.0
20260903060033 79 360 3.0 7.0 0.00 0.00 0.00 76 1008.0
20260903054623 80 272 1.0 6.0 0.00 0.00 0.00 79 1008.1
20260903053043 81 248 1.0 4.0 0.00 0.00 0.00 79 1007.2
20260903051618 81 256 3.0 7.0 0.00 0.00 0.00 78 1007.1
20260903050009 81 251 4.0 9.0 0.00 0.00 0.00 77 1006.8
20260903044542 81 201 3.0 9.0 0.00 0.00 0.00 77 1006.5
20260903043112 81 290 4.0 8.0 0.00 0.00 0.00 77 1006.5
20260903041517 80 202 3.0 6.0 0.00 0.00 0.00 79 1006.3
20260903040051 80 209 2.0 6.0 0.00 0.00 0.00 79 1006.2
20260903034647 80 215 2.0 6.0 0.00 0.00 0.00 79 1006.0
20260903033017 80 209 4.0 7.0 0.00 0.00 0.00 78 1005.7
20260903031600 80 218 4.0 8.0 0.00 0.00 0.00 77 1005.6
20260903030027 80 165 3.0 7.0 0.00 0.00 0.00 77 1006.1
20260903024603 80 193 2.0 6.0 0.00 0.00 0.00 78 1006.4
20260903023006 80 176 1.0 5.0 0.00 0.00 0.00 77 1006.6
20260903021545 80 203 1.0 3.0 0.00 0.00 0.00 77 1006.7
20260903020113 80 179 0.0 3.0 0.00 0.00 0.00 78 1006.8
20260903014643 80 157 0.0 5.0 0.00 0.00 0.00 78 1006.9
20260903013005 80 167 0.0 2.0 0.00 0.00 0.00 78 1006.9
20260903011547 81 154 0.0 3.0 0.00 0.00 0.00 76 1006.9
20260903010113 82 171 1.0 4.0 0.00 0.00 0.00 74 1006.8
20260903004641 83 196 3.0 5.0 0.00 0.00 0.00 73 1006.7
20260903003138 83 197 2.0 3.0 0.00 0.00 0.00 72 1006.6
20260903001653 84 210 2.0 4.0 0.00 0.00 0.00 72 1006.6
20260903000013 85 204 1.0 5.0 0.00 0.00 0.00 70 1006.5
20260902234609 85 205 1.0 5.0 0.00 0.00 0.00 69 1006.5
20260902233142 86 205 1.0 4.0 0.00 0.00 0.00 69 1006.5
20260902231544 87 205 2.0 5.0 0.00 0.00 0.00 67 1006.5
20260902230106 88 188 2.0 5.0 0.00 0.00 0.00 66 1006.3
20260902224641 88 210 3.0 7.0 0.00 0.00 0.00 64 1006.4
20260902223149 89 238 3.0 9.0 0.00 0.00 0.00 63 1006.4
20260902221535 90 198 4.0 9.0 0.00 0.00 0.00 63 1006.4
20260902220118 90 201 4.0 6.0 0.00 0.00 0.00 62 1006.4
20260902214528 91 242 4.0 10.0 0.00 0.00 0.00 61 1006.6
20260902213104 91 202 2.0 7.0 0.00 0.00 0.00 62 1006.5
20260902211644 91 215 5.0 11.0 0.00 0.00 0.00 58 1006.7
20260902210007 92 186 2.0 13.0 0.00 0.00 0.00 57 1006.9
20260902204558 92 175 4.0 9.0 0.00 0.00 0.00 59 1007.0
20260902201606 92 219 4.0 10.0 0.00 0.00 0.00 58 1007.3
20260902200030 92 203 4.0 12.0 0.00 0.00 0.00 59 1007.3
20260902194555 92 226 3.0 11.0 0.00 0.00 0.00 56 1007.5
20260902193135 92 203 4.0 13.0 0.00 0.00 0.00 58 1007.6
20260902191634 92 242 5.0 14.0 0.00 0.00 0.00 59 1007.8
20260902190028 92 245 3.0 7.0 0.00 0.00 0.00 62 1007.9
20260902184537 92 184 5.0 8.0 0.00 0.00 0.00 60 1008.0
20260902183100 92 215 4.0 9.0 0.00 0.00 0.00 62 1008.2
20260902181637 91 207 4.0 10.0 0.00 0.00 0.00 63 1008.4
20260902180137 91 233 5.0 10.0 0.00 0.00 0.00 63 1008.4
20260902174639 90 173 3.0 7.0 0.00 0.00 0.00 63 1008.7
20260902173137 90 202 3.0 6.0 0.00 0.00 0.00 65 1008.8
20260902171644 89 242 3.0 7.0 0.00 0.00 0.00 65 1009.1